Location: Grange Verzio
(44.5000°N, 6.9833°E)
Time: 18:15:23
(UTC+00:00)

Cosmos 1954 Rocket - Pass Details

Date: 01 February 2023
Orbit: 751 x 780 km, 74.0° (Epoch: 29 March)

Event Time Altitude Azimuth Distance (km) Brightness Sun altitude
Rises 17:43:11 0° 185° (S) 3,233 7.5 -11.4°
Reaches altitude 10° 17:45:36 10° 181° (S) 2,306 6.6 -11.8°
Maximum altitude 17:50:40 53° 105° (ESE) 937 4.1 -12.7°
Drops below altitude 10° 17:55:45 10° 30° (NNE) 2,303 6.1 -13.6°
Enters shadow 17:56:52 - 27° (NNE) 2,729 6.5 -13.8°
